Regional Weather Roundup
Issued by NWS

Home | Current Version | Previous Version | Text Only | Print | Product List | Glossary Off
Versions: 1 2 3 4 5 6 7 8 9 10 11 12 13 14 15 16 17 18 19 20 21 22 23 24 25 26 27 28 29 30 31 32 33 34 35 36 37 38 39 40 41 42 43 44 45 46 47 48 49 50

000
ASUS43 KDTX 180510
RWRMI
MICHIGAN HOURLY REGIONAL WEATHER ROUNDUP
NATIONAL WEATHER SERVICE DETROIT/PONTIAC MI
100 AM EDT SAT APR 18 2015

NOTE: "FAIR" INDICATES FEW OR NO CLOUDS BELOW 12,000 FEET WITH NO
SIGNIFICANT WEATHER AND/OR OBSTRUCTION TO VISIBILITY.

MIZ047>049-052>055-059>063-066>070-074>076-081>083-180600-
SOUTHEAST LOWER MICHIGAN

CITY           SKY/WX    TMP DP  RH WIND       PRES   REMARKS
ADRIAN         CLEAR     54  44  69 CALM      30.02S
ALMA             N/A     49  42  78 W3        30.00F
ANN ARBOR      CLEAR     49  44  83 CALM      30.00F
BAD AXE        CLEAR     44  39  82 CALM      29.98S
DETROIT CITY   CLEAR     53  43  68 CALM      30.00S
DETROIT        CLEAR     53  45  74 S3        30.01S
FLINT          CLEAR     57  41  55 W3        30.00R
GROSSE ILE     CLEAR     48  45  87 CALM      29.99F
HILLSDALE      CLEAR     54  40  59 CALM      30.02F
HOWELL         CLEAR     56  40  54 SW5       30.00S

CITY           SKY/WX    TMP DP  RH WIND       PRES   REMARKS
JACKSON        CLEAR     51  42  71 W3        30.02S
LAMBERTVILLE   CLEAR     54  45  71 CALM      30.02S
LANSING        CLEAR     54  43  66 CALM      30.01F
LAPEER         NOT AVBL
MASON          CLEAR     51  41  69 CALM      30.01S
MONROE         CLEAR     50  46  87 CALM      29.99S
PONTIAC        CLEAR     54  44  69 CALM      30.00S
PORT HOPE        N/A     44  41  89 SE6       29.97F
PORT HURON     CLEAR     50  46  87 S3        29.99F
TRI CITIES     CLEAR     51  42  71 SW3       30.00S
YPSILANTI      CLEAR     55  43  63 CALM      30.01S
$$
MIZ043>046-050>051-056>058-064>065-071>073-077>080-180600-
SOUTHWEST LOWER MICHIGAN

CITY           SKY/WX    TMP DP  RH WIND       PRES   REMARKS
BATTLE CREEK   CLEAR     53  42  66 CALM      30.02F
BENTON HARBOR  CLEAR     53  46  77 CALM      30.01S
BIG RAPIDS       N/A     47  40  76 CALM      30.00S
COLDWATER        N/A     50  43  76 CALM      30.02S
HOLLAND        CLEAR     52  44  74 CALM      30.01S
GRAND RAPIDS   CLEAR     52  40  63 CALM      30.01S
KALAMAZOO      CLEAR     54  44  69 S3        30.02S
MARSHALL       CLEAR     48  40  74 CALM      30.01F
MUSKEGON       CLEAR     48  41  76 CALM      30.00F
$$
MIZ016>042-180600-
NORTHERN LOWER MICHIGAN

CITY           SKY/WX    TMP DP  RH WIND       PRES   REMARKS
ALPENA         CLEAR     39  34  82 CALM      29.97F
BEAVER ISLAND  CLEAR     38  33  82 CALM      29.98F
BELLAIRE       CLEAR     42  37  81 CALM      29.98R
CADILLAC       CLEAR     42  37  83 CALM      29.98S
CHARLEVOIX     CLEAR     38  32  78 CALM      30.02R
FRANKFORT      PTCLDY    55  33  44 W3        29.99R
GAYLORD        CLEAR     44  37  76 CALM      29.97S
GRAYLING       MOCLDY    39  34  82 CALM      29.98F
HARBOR SPRINGS CLEAR     42  30  63 CALM      29.98R
MANISTEE       CLEAR     43  37  81 CALM      30.00S
OSCODA         CLEAR     35  32  88 CALM      29.98S
PELLSTON       CLEAR     38  29  70 CALM      29.98R
TRAVERSE CITY  PTCLDY    44  37  76 CALM      29.97R
$$
MIZ007>008-015-180600-
EASTERN UPPER MICHIGAN

CITY           SKY/WX    TMP DP  RH WIND       PRES   REMARKS
KINROSS        CLEAR     45  28  53 SW5       29.93F
MACKINAC ISLAN CLEAR     40  32  71 SW7       29.96F
NEWBERRY       CLEAR     43  32  64 SW12      29.94F
S. S. MARIE    CLEAR     37  30  75 CALM      29.93F
$$
MIZ004>006-011>014-085-180600-
CENTRAL UPPER MICHIGAN

CITY           SKY/WX    TMP DP  RH WIND       PRES   REMARKS
MANISTIQUE     CLEAR     42  35  74 SW5       29.96F
ESCANABA       CLEAR     36  30  80 W6        29.97F
MENOMINEE      CLEAR     45  36  70 CALM      29.99S
SAWYER-GWINN   CLEAR     46  34  61 S5        29.97S
$$
MIZ001>003-009>011-084-180600-
WESTERN UPPER MICHIGAN

CITY           SKY/WX    TMP DP  RH WIND       PRES   REMARKS
IRON MOUNTAIN  CLEAR     45  37  73 CALM      29.98R
HOUGHTON       CLEAR     47  33  58 N21G36    30.01R
COPPER HARBOR    N/A     42  33  70 N17G23    30.02R
IRONWOOD       CLEAR     55  27  33 N13       30.04R
$$

ABBREVIATIONS USED IN REMARKS
   TC - TEMPERATURE IN CELSIUS
  WCI - WIND CHILL INDEX
   HX - HEAT INDEX
  VSB - VISIBILITY



USA.gov is the U.S. government's official web portal to all federal, state and local government web resources and services.